Regional Weather Roundup
Issued by NWS

Home | Current Version | Previous Version | Text Only | Print | Product List | Glossary Off
Versions: 1 2 3 4 5 6 7 8 9 10 11 12 13 14 15 16 17 18 19 20 21 22 23 24 25 26 27 28 29 30 31 32 33 34 35 36 37 38 39 40 41 42 43 44 45 46 47 48 49 50

000
ASUS43 KLMK 301602
RWRKY
KENTUCKY REGIONAL WEATHER ROUNDUP
NATIONAL WEATHER SERVICE LOUISVILLE KY
1200 PM EDT TUE SEP 30 2014

NOTE "FAIR" INDICATES FEW OR NO CLOUDS BELOW 12,000 FEET
WITH NO SIGNIFICANT WEATHER AND/OR OBSTRUCTIONS TO VISIBILITY.

KYZ001>023-026-027-061>063-070>075-301700-
WESTERN AND SOUTH CENTRAL KENTUCKY

CITY           SKY/WX    TMP DP  RH WIND       PRES   REMARKS
PADUCAH        SUNNY     80  58  46 CALM      29.96S
HENDERSON      NOT AVBL
OWENSBORO      SUNNY     81  54  39 W6        29.96F
HOPKINSVILLE   SUNNY     83  56  40 N7        29.97S
BOWLING GREEN  SUNNY     79  57  46 CALM      29.97F
GLASGOW        SUNNY     78  56  48 W3        29.97S
$$

KYZ024-025-028>034-038-045-046-053-301700-
NORTH CENTRAL KENTUCKY

CITY           SKY/WX    TMP DP  RH WIND       PRES   REMARKS
LOUISVILLE/SDF MOSUNNY   77  56  48 CALM      29.95F
LOUISVILLE/LOU SUNNY     76  57  51 NW6       29.96F
FORT KNOX      SUNNY     77  56  49 NW5       29.96S
$$

KYZ035>037-039>044-047>052-055>060-089>105-301700-
NORTHEAST KENTUCKY

CITY           SKY/WX    TMP DP  RH WIND       PRES   REMARKS
LEXINGTON      SUNNY     77  52  41 VRB3      29.97F
COVINGTON      MOSUNNY   75  55  49 NW5       29.94S
FRANKFORT      SUNNY     76  54  46 VRB5      29.95F
$$

KYZ054-064>069-076>088-106>120-301700-
SOUTHEAST KENTUCKY

CITY           SKY/WX    TMP DP  RH WIND       PRES   REMARKS
JACKSON        SUNNY     73  58  59 CALM      29.98S
LONDON         SUNNY     76  58  53 VRB3      29.99F
SOMERSET       SUNNY     72  57  60 CALM      29.99F
MIDDLESBORO    MOSUNNY   65  62  91 CALM      30.00S
MONTICELLO     SUNNY     78  59  52 CALM      30.00S
$$




USA.gov is the U.S. government's official web portal to all federal, state and local government web resources and services.